Weather History for Rochester/St. Mary's Hospita, MN

Change the Weather History Date:

Saturday, December 7, 2013

  Actual Average (KRST) Record (KRST)
Temperature  
Mean Temperature 1 °F 22 °F  
Max Temperature 8 °F 30 °F 56 °F (1939)
Min Temperature -6 °F 15 °F -28 °F (1972)
Degree Days  
Heating Degree Days 64 43  
Month to date heating degree days 289  
Since 1 July heating degree days 1961  
Cooling Degree Days 0 0  
Month to date cooling degree days 0  
Year to date cooling degree days 585  
Moisture  
Dew Point -8 °F    
Average Humidity 65    
Maximum Humidity 77    
Minimum Humidity 51    
Precipitation  
Precipitation 0.00 in 0.05 in 0.89 in (1947)
Month to date precipitation 0.34  
Year to date precipitation 32.13  
Snow  
Snow 0.00 in 0.50 in 7.70 in (1947)
Month to date snowfall 2.9  
Since 1 July snowfall 9.8  
Snow Depth -    
Sea Level Pressure  
Sea Level Pressure 30.60 in    
Wind  
Wind Speed 9 mph (West)    
Max Wind Speed 16 mph    
Max Gust Speed 20 mph    
Visibility 10 miles    
Events      
T = Trace of Precipitation, MM = Missing Value Source: NWS Daily Summary

Daily Weather History Graph

Daily Weather History Graph

Search for Another Location

Airport:

Trip Planner

Search our weather history database for the weather conditions in past years. The results will help you decide how hot, cold, wet, or windy it might be!

Date:

Astronomy

Dec. 07, 2013 Rise Set
Actual Time 7:31 AM CST 4:31 PM CST
Civil Twilight 6:58 AM CST 5:04 PM CST
Nautical Twilight 6:22 AM CST 5:40 PM CST
Astronomical Twilight 5:47 AM CST 6:15 PM CST
Moon 11:09 AM CST (12/7) 10:22 PM CST (12/7)
Length of Visible Light 10h 06m
Length of Day
9h 00m
Waxing Crescent, 29% of the Moon is Illuminated
Dec 7
Waxing Crescent
Dec 9
First Quarter
Dec 17
Full
Dec 25
Last Quarter
Jan 1
New

Hourly Weather History & Observations

Time (CST) Temp. Windchill Dew Point Humidity Pressure Visibility Wind Dir Wind Speed Gust Speed Precip Events Conditions
12:13 AM -3.3 °F -22.1 °F -10.1 °F 73% 30.58 in 10.0 mi WNW 12.7 mph 18.4 mph N/A   Clear
12:33 AM -3.8 °F -21.9 °F -10.7 °F 72% 30.59 in 10.0 mi WNW 11.5 mph 18.4 mph N/A   Clear
12:53 AM -4.0 °F -21.2 °F -10.8 °F 72% 30.59 in 10.0 mi West 10.4 mph - N/A   Clear
1:13 AM -4.0 °F -25.2 °F -11.0 °F 72% 30.58 in 10.0 mi West 16.1 mph - N/A   Clear
1:33 AM -4.2 °F -24.7 °F -11.2 °F 72% 30.59 in 10.0 mi WNW 15.0 mph 18.4 mph N/A   Clear
1:53 AM -4.4 °F -23.4 °F -11.6 °F 71% 30.60 in 10.0 mi WNW 12.7 mph 16.1 mph N/A   Clear
2:13 AM -5.4 °F -26.3 °F -12.8 °F 70% 30.60 in 10.0 mi WNW 15.0 mph 19.6 mph N/A   Clear
2:33 AM -5.8 °F -24.4 °F -13.2 °F 70% 30.61 in 10.0 mi WNW 11.5 mph - N/A   Clear
2:53 AM -5.3 °F -21.7 °F -12.1 °F 72% 30.61 in 10.0 mi WNW 9.2 mph 18.4 mph N/A   Clear
3:13 AM -4.7 °F -22.1 °F -11.2 °F 74% 30.61 in 10.0 mi WNW 10.4 mph - N/A   Clear
3:33 AM -5.8 °F -21.2 °F -12.6 °F 72% 30.62 in 10.0 mi WNW 8.1 mph - N/A   Clear
3:53 AM -5.6 °F -22.2 °F -12.6 °F 72% 30.62 in 10.0 mi WNW 9.2 mph - N/A   Clear
4:13 AM -5.1 °F -21.5 °F -11.6 °F 74% 30.62 in 10.0 mi West 9.2 mph - N/A   Clear
4:33 AM -4.9 °F -24.1 °F -11.0 °F 75% 30.63 in 10.0 mi West 12.7 mph 17.3 mph N/A   Clear
4:53 AM -4.9 °F -22.3 °F -10.8 °F 76% 30.63 in 10.0 mi West 10.4 mph - N/A   Clear
5:13 AM -5.4 °F -21.9 °F -11.9 °F 74% 30.63 in 10.0 mi West 9.2 mph - N/A   Clear
5:33 AM -5.6 °F -24.1 °F -11.9 °F 74% 30.63 in 10.0 mi West 11.5 mph - N/A   Clear
5:53 AM -5.4 °F -21.9 °F -11.4 °F 76% 30.63 in 10.0 mi West 9.2 mph - N/A   Clear
6:13 AM -4.7 °F -21.1 °F -10.3 °F 77% 30.63 in 10.0 mi West 9.2 mph - N/A   Clear
6:33 AM -6.0 °F -21.5 °F -12.1 °F 75% 30.63 in 10.0 mi WNW 8.1 mph - N/A   Clear
6:53 AM -5.8 °F -19.9 °F -12.1 °F 74% 30.64 in 10.0 mi West 6.9 mph - N/A   Clear
7:13 AM -5.1 °F -19.1 °F -11.0 °F 76% 30.65 in 10.0 mi West 6.9 mph - N/A   Clear
7:33 AM -4.9 °F -23.2 °F -10.7 °F 76% 30.64 in 10.0 mi West 11.5 mph - N/A   Clear
7:53 AM -5.4 °F -20.8 °F -11.7 °F 74% 30.64 in 10.0 mi West 8.1 mph - N/A   Clear
8:13 AM -5.3 °F -20.6 °F -11.9 °F 73% 30.64 in 10.0 mi WNW 8.1 mph - N/A   Clear
8:33 AM -4.9 °F -15.6 °F -12.1 °F 71% 30.65 in 10.0 mi WNW 4.6 mph - N/A   Clear
8:53 AM -4.5 °F -19.7 °F -11.9 °F 71% 30.66 in 10.0 mi WNW 8.1 mph - N/A   Clear
9:13 AM -2.7 °F -16.2 °F -10.1 °F 71% 30.66 in 10.0 mi West 6.9 mph - N/A   Clear
9:33 AM -2.4 °F -20.1 °F -10.3 °F 69% 30.66 in 10.0 mi West 11.5 mph - N/A   Clear
9:53 AM -2.4 °F -15.8 °F -11.0 °F 67% 30.67 in 10.0 mi West 6.9 mph - N/A   Clear
10:13 AM -1.1 °F -17.6 °F -10.5 °F 65% 30.68 in 10.0 mi West 10.4 mph - N/A   Clear
10:33 AM -0.0 °F -14.2 °F -10.1 °F 63% 30.68 in 10.0 mi WNW 8.1 mph - N/A   Clear
10:53 AM 0.9 °F -11.9 °F -9.6 °F 62% 30.68 in 10.0 mi West 6.9 mph - N/A   Clear
11:13 AM 1.4 °F -14.5 °F -10.8 °F 57% 30.67 in 10.0 mi WNW 10.4 mph - N/A   Clear
11:33 AM 2.7 °F -10.9 °F -8.7 °F 59% 30.65 in 10.0 mi West 8.1 mph - N/A   Clear
11:53 AM 1.6 °F -13.3 °F -11.6 °F 54% 30.65 in 10.0 mi WNW 9.2 mph - N/A   Clear
12:13 PM 3.7 °F -5.5 °F -9.0 °F 55% 30.64 in 10.0 mi WNW 4.6 mph - N/A   Clear
12:33 PM 3.6 °F -9.8 °F -10.5 °F 52% 30.63 in 10.0 mi WNW 8.1 mph - N/A   Clear
12:53 PM 4.6 °F -10.4 °F -8.9 °F 54% 30.63 in 10.0 mi West 10.4 mph - N/A   Clear
1:13 PM 5.4 °F -9.6 °F -7.8 °F 55% 30.62 in 10.0 mi WNW 10.4 mph - N/A   Clear
1:33 PM 6.3 °F -8.4 °F -7.4 °F 54% 30.62 in 10.0 mi West 10.4 mph - N/A   Clear
1:53 PM 8.1 °F -3.2 °F -6.0 °F 53% 30.61 in 10.0 mi WSW 6.9 mph - N/A   Clear
2:13 PM 7.5 °F -6.9 °F -7.1 °F 51% 30.62 in 10.0 mi West 10.4 mph - N/A   Clear
2:33 PM 8.6 °F -1.3 °F -5.6 °F 53% 30.61 in 10.0 mi West 5.8 mph - N/A   Clear
2:53 PM 7.9 °F -3.5 °F -5.6 °F 54% 30.61 in 10.0 mi WSW 6.9 mph - N/A   Clear
3:13 PM 8.8 °F 2.2 °F -4.7 °F 54% 30.60 in 10.0 mi WSW 3.5 mph - N/A   Clear
3:33 PM 8.6 °F 0.1 °F -4.9 °F 54% 30.60 in 10.0 mi West 4.6 mph - N/A   Clear
3:53 PM 8.4 °F -0.1 °F -5.3 °F 54% 30.60 in 10.0 mi WSW 4.6 mph - N/A   Clear
4:13 PM 8.1 °F -2.0 °F -4.4 °F 57% 30.59 in 10.0 mi WSW 5.8 mph - N/A   Clear
4:33 PM 7.7 °F -0.9 °F -4.5 °F 57% 30.59 in 10.0 mi West 4.6 mph - N/A   Clear
4:53 PM 7.2 °F -3.0 °F -4.7 °F 58% 30.58 in 10.0 mi West 5.8 mph - N/A   Clear
5:13 PM 6.8 °F -0.1 °F -4.5 °F 60% 30.58 in 10.0 mi WNW 3.5 mph - N/A   Clear
5:33 PM 5.9 °F -3.0 °F -5.4 °F 60% 30.57 in 10.0 mi NW 4.6 mph - N/A   Clear
5:53 PM 6.6 °F -0.3 °F -4.4 °F 61% 30.56 in 10.0 mi WNW 3.5 mph - N/A   Clear
6:13 PM 5.9 °F -3.0 °F -6.0 °F 58% 30.55 in 10.0 mi NW 4.6 mph - N/A   Clear
6:33 PM 5.5 °F - -6.0 °F 59% 30.55 in 10.0 mi Calm Calm - N/A   Clear
6:53 PM 5.2 °F - -4.9 °F 63% 30.55 in 10.0 mi Calm Calm - N/A   Clear
7:13 PM 5.4 °F -1.7 °F -4.7 °F 63% 30.55 in 10.0 mi NW 3.5 mph - N/A   Clear
7:33 PM 4.8 °F -2.3 °F -6.2 °F 61% 30.55 in 10.0 mi WNW 3.5 mph - N/A   Clear
7:54 PM 5.4 °F -1.7 °F -4.9 °F 63% 30.55 in 10.0 mi WNW 3.5 mph - N/A   Clear
8:13 PM 4.8 °F -2.3 °F -5.8 °F 62% 30.55 in 10.0 mi WNW 3.5 mph - N/A   Clear
8:33 PM 4.6 °F - -5.3 °F 64% 30.54 in 10.0 mi Calm Calm - N/A   Clear
8:54 PM 4.8 °F - -4.7 °F 65% 30.54 in 10.0 mi Calm Calm - N/A   Clear
9:13 PM 3.7 °F - -5.8 °F 65% 30.54 in 10.0 mi Calm Calm - N/A   Clear
9:33 PM 3.9 °F - -5.6 °F 65% 30.54 in 10.0 mi Calm Calm - N/A   Clear
9:53 PM 4.1 °F - -4.9 °F 66% 30.54 in 10.0 mi Calm Calm - N/A   Clear
10:13 PM 4.1 °F - -4.7 °F 67% 30.54 in 10.0 mi Calm Calm - N/A   Clear
10:33 PM 4.8 °F - -4.0 °F 67% 30.54 in 10.0 mi Calm Calm - N/A   Mostly Cloudy
10:53 PM 4.1 °F - -5.3 °F 65% 30.54 in 10.0 mi Calm Calm - N/A   Overcast
11:13 PM 4.6 °F - -3.8 °F 68% 30.54 in 10.0 mi Calm Calm - N/A   Overcast
11:33 PM 4.5 °F - -4.0 °F 68% 30.53 in 10.0 mi Calm Calm - N/A   Overcast
11:53 PM 4.5 °F -4.7 °F -3.8 °F 69% 30.53 in 10.0 mi SE 4.6 mph - N/A   Overcast